Regional Weather Roundup
Issued by NWS

Home | Current Version | Previous Version | Graphics & Text | Print | Product List | Glossary Off
Versions: 1 2 3 4 5 6 7 8 9 10 11 12 13 14 15 16 17 18 19 20 21 22 23 24 25 26 27 28 29 30 31 32 33 34 35 36 37 38 39 40 41 42 43 44 45 46 47 48 49 50

000
ASUS43 KTOP 252208
RWRKS

WEATHER ROUNDUP FOR KANSAS
NATIONAL WEATHER SERVICE GOODLAND KS
500 PM CDT SAT APR 25 2015

NOTE:  "FAIR" INDICATES FEW OR NO CLOUDS BELOW 12,000 FEET WITH NO
SIGNIFICANT WEATHER AND/OR OBSTRUCTIONS TO VISIBILITY.

KSZ001>006-013>018-027>032-041>047-252300-
NORTHWEST KANSAS

CITY           SKY/WX    TMP DP  RH WIND       PRES   REMARKS
GOODLAND       SUNNY     71  41  33 VRB3      29.70S
HAYS           SUNNY     68  52  56 NE10G16   29.69R
HILL CITY      MOSUNNY   66  55  67 NE14      29.70R
RUSSELL        CLOUDY    67  52  58 N13       29.68R
$$

KSZ061>065-074>080-084>089-252300-
SOUTHWEST KANSAS

CITY           SKY/WX    TMP DP  RH WIND       PRES   REMARKS
DODGE CITY     MOSUNNY   75  38  26 CALM      29.66S
ELKHART          N/A     76  33  21 E8          N/A
GARDEN CITY    SUNNY     75  39  27 NW7G20    29.67R
GREAT BEND     SUNNY     70  54  56 N10       29.67R
LIBERAL        MOSUNNY   77  36  22 E7        29.67S
$$

KSZ066>073-081>083-090>101-252300-
SOUTHEAST KANSAS

CITY           SKY/WX    TMP DP  RH WIND       PRES   REMARKS
CHANUTE        MOSUNNY   71  55  56 NW15      29.61R
COFFEYVILLE    MOSUNNY   76  55  48 NW22G28   29.59R
HUTCHINSON     MOSUNNY   72  52  49 N8G20     29.64R
MEDICINE LODGE   N/A     81  49  32 N6        29.61S
NEWTON         MOSUNNY   70  52  52 N13       29.67R
PARSONS        PTSUNNY   72  56  57 NW12G21   29.62R
WICHITA INTL   MOSUNNY   75  54  47 N14       29.63R
WICHITA JABRA  PTSUNNY   72  53  51 NW13      29.64R
WICHITA MCCONL MOSUNNY   73  54  51 N12       29.63R
WINFIELD       MOSUNNY   78  55  44 NW13      29.62R
$$

KSZ007>012-019>026-033>040-048>060-102>105-252300-
NORTHEAST KANSAS

CITY           SKY/WX    TMP DP  RH WIND       PRES   REMARKS
CONCORDIA      CLOUDY    54  50  86 N14       29.71R FOG
EMPORIA        PTSUNNY   64  54  69 N15G22    29.64R
LAWRENCE       CLOUDY    56  52  86 N16       29.65R
MANHATTAN      CLOUDY    57  52  83 N8        29.69R
MARYSVILLE     CLOUDY    52  48  87 N12       29.71R
OLATHE IND     CLOUDY    57  54  89 N16       29.64R
OLATHE EXE     CLOUDY    57  53  86 N16G24    29.62R
SALINA         CLOUDY    68  55  63 N17       29.67R
TOPEKA BILLARD CLOUDY    55  52  89 N16G25    29.66R
TOPEKA FORBES  CLOUDY    57  53  86 N15       29.65R
$$


USA.gov is the U.S. government's official web portal to all federal, state and local government web resources and services.